Location: Newark
(49.8348°N, 24.0280°E)
Time: 04:30:05
(UTC+00:00)

Transit 2A - Pass Details

Date: 28 January 2020
Orbit: 600 x 959 km, 66.7° (Epoch: 16 February)

Event Time Altitude Azimuth Distance (km) Brightness Sun altitude
Rises 23:07:28 0° 324° (NW) 2,900 - -57.7°
Reaches altitude 10° 23:10:57 10° 353° (N) 2,038 - -57.6°
Maximum altitude 23:13:04 13° 21° (NNE) 1,882 - -57.5°
Drops below altitude 10° 23:15:14 10° 48° (NE) 2,113 - -57.4°
Sets 23:19:00 0° 77° (ENE) 3,110 - -57.2°
